Alexandria, MN

3:16 AM CST on February 14, 2016 (GMT -0600)
Chandler

Weather History for KAXN - September, 2014

Change the Weather History Date:

Tuesday, September 16, 2014

  Actual Average Record
Temperature  
Mean Temperature 54 °F -  
Max Temperature 66 °F 67 °F 93 °F (1948)
Min Temperature 42 °F 47 °F 34 °F (1959)
Degree Days  
Heating Degree Days 11    
Growing Degree Days 4 (Base 50)    
Moisture  
Dew Point 41 °F    
Average Humidity 63    
Maximum Humidity 80    
Minimum Humidity 41    
Precipitation  
Precipitation 0.00 in - - ()
Sea Level Pressure  
Sea Level Pressure 30.12 in    
Wind  
Wind Speed 9 mph (SSW)    
Max Wind Speed 10 mph    
Max Gust Speed -    
Visibility 10 miles    
Events      
Averages and records for this station are not official NWS values.
T = Trace of Precipitation, MM = Missing Value Source: NWS Daily Summary

Daily Weather History Graph

Daily Weather History Graph

Search for Another Location

Airport or City:

Trip Planner

Search our weather history database for the weather conditions in past years. The results will help you decide how hot, cold, wet, or windy it might be!

Date:

Astronomy

Sep. 16, 2014 Rise Set
Actual Time 7:01 AM CDT 7:30 PM CDT
Civil Twilight 6:31 AM CDT 8:00 PM CDT
Nautical Twilight 5:55 AM CDT 8:36 PM CDT
Astronomical Twilight 5:18 AM CDT 9:12 PM CDT
Moon No Moon Rise 3:08 PM CDT (9/16)
Length of Visible Light 13h 29m
Length of Day
12h 29m
Last Quarter, 44% of the Moon is Illuminated
Sep 16
Last Quarter
Sep 24
New
Oct 1
First Quarter
Oct 8
Full
Oct 15
Last Quarter

Hourly Weather History & Observations

Time (CDT) Temp. Windchill Dew Point Humidity Pressure Visibility Wind Dir Wind Speed Gust Speed Precip Events Conditions
12:53 AM 45.0 °F 40.1 °F 37.9 °F 76% 30.22 in 10.0 mi SW 9.2 mph - N/A   Clear
1:53 AM 45.0 °F 40.1 °F 36.0 °F 71% 30.22 in 10.0 mi SW 9.2 mph - N/A   Clear
2:53 AM 45.0 °F 39.7 °F 36.0 °F 71% 30.21 in 10.0 mi SW 10.4 mph - N/A   Clear
3:53 AM 45.0 °F 39.7 °F 35.1 °F 68% 30.20 in 10.0 mi SW 10.4 mph - N/A   Clear
4:53 AM 44.1 °F 38.6 °F 36.0 °F 73% 30.19 in 10.0 mi SW 10.4 mph - N/A   Clear
5:53 AM 43.0 °F 38.2 °F 36.0 °F 76% 30.19 in 10.0 mi SW 8.1 mph - N/A   Clear
6:53 AM 42.1 °F 37.1 °F 36.0 °F 79% 30.19 in 10.0 mi SW 8.1 mph - N/A   Clear
7:53 AM 45.0 °F 40.1 °F 37.9 °F 76% 30.17 in 10.0 mi SW 9.2 mph - N/A   Clear
8:53 AM 50.0 °F - 41.0 °F 71% 30.17 in 10.0 mi WSW 6.9 mph - N/A   Clear
9:53 AM 54.0 °F - 41.0 °F 62% 30.16 in 10.0 mi SW 9.2 mph - N/A   Clear
10:53 AM 57.9 °F - 42.1 °F 56% 30.14 in 10.0 mi WSW 9.2 mph - N/A   Clear
11:53 AM 62.1 °F - 41.0 °F 46% 30.14 in 10.0 mi SW 10.4 mph - N/A   Clear
12:53 PM 64.0 °F - 39.9 °F 41% 30.12 in 10.0 mi SSW 10.4 mph - N/A   Clear
1:53 PM 64.0 °F - 41.0 °F 43% 30.09 in 10.0 mi South 9.2 mph - N/A   Clear
2:53 PM 64.9 °F - 42.1 °F 43% 30.07 in 10.0 mi South 9.2 mph - N/A   Clear
3:53 PM 66.0 °F - 43.0 °F 43% 30.06 in 10.0 mi South 8.1 mph - N/A   Partly Cloudy
4:53 PM 66.0 °F - 42.1 °F 42% 30.04 in 10.0 mi South 6.9 mph - N/A   Overcast
5:53 PM 64.9 °F - 43.0 °F 45% 30.03 in 10.0 mi SSE 8.1 mph - N/A   Mostly Cloudy
6:53 PM 62.1 °F - 46.9 °F 58% 30.03 in 10.0 mi SE 4.6 mph - N/A   Overcast
7:53 PM 57.9 °F - 48.0 °F 70% 30.01 in 10.0 mi SSE 5.8 mph - N/A   Overcast
9:53 PM 55.0 °F - 46.0 °F 72% 30.01 in 10.0 mi ESE 5.8 mph - N/A   Partly Cloudy
10:53 PM 52.0 °F - 46.0 °F 80% 30.00 in 10.0 mi SE 6.9 mph - N/A   Partly Cloudy
11:53 PM 52.0 °F - 46.0 °F 80% 29.99 in 10.0 mi SE 5.8 mph - N/A   Clear